Time,TemperatureF,DewpointF,PressureIn,WindDirection,WindDirectionDegrees,WindSpeedMPH,WindSpeedGustMPH,Humidity,HourlyPrecipIn,Conditions,Clouds,dailyrainin,SoftwareType,DateUTC
2015-05-05 00:02:00,66.4,56.3,30.25,SE,129,0.0,0.0,70,0.00,,,0.00,LWC V2.00 B2112,2015-05-05 04:02:00,
2015-05-05 00:07:00,66.3,56.2,30.25,SE,129,0.0,0.0,70,0.00,,,0.00,LWC V2.00 B2112,2015-05-05 04:07:00,
2015-05-05 00:12:00,66.1,56.0,30.25,SE,129,0.0,0.0,70,0.00,,,0.00,LWC V2.00 B2112,2015-05-05 04:12:00,
2015-05-05 00:17:00,66.0,55.9,30.25,SE,129,0.0,0.0,70,0.00,,,0.00,LWC V2.00 B2112,2015-05-05 04:17:00,
2015-05-05 00:22:00,65.8,56.1,30.25,SE,129,0.0,0.0,71,0.00,,,0.00,LWC V2.00 B2112,2015-05-05 04:22:00,
2015-05-05 00:27:00,65.6,55.9,30.26,SE,129,0.0,0.0,71,0.00,,,0.00,LWC V2.00 B2112,2015-05-05 04:27:00,
2015-05-05 00:32:00,65.5,55.8,30.26,SE,129,0.0,0.0,71,0.00,,,0.00,LWC V2.00 B2112,2015-05-05 04:32:00,
2015-05-05 00:37:00,65.5,55.8,30.26,SE,130,0.0,0.0,71,0.00,,,0.00,LWC V2.00 B2112,2015-05-05 04:37:00,
2015-05-05 00:42:00,65.5,55.8,30.26,SE,130,0.0,0.0,71,0.00,,,0.00,LWC V2.00 B2112,2015-05-05 04:42:00,
2015-05-05 00:47:00,65.3,56.0,30.26,SE,130,0.0,0.0,72,0.00,,,0.00,LWC V2.00 B2112,2015-05-05 04:47:00,
2015-05-05 00:52:00,65.2,56.3,30.26,SE,130,0.0,0.0,73,0.00,,,0.00,LWC V2.00 B2112,2015-05-05 04:52:00,
2015-05-05 00:57:00,65.0,56.1,30.26,SE,130,0.0,0.0,73,0.00,,,0.00,LWC V2.00 B2112,2015-05-05 04:57:00,
2015-05-05 01:02:00,64.8,55.6,30.26,SE,130,0.0,0.0,72,0.00,,,0.00,LWC V2.00 B2112,2015-05-05 05:02:00,
2015-05-05 01:07:00,64.8,56.3,30.26,SE,131,0.0,0.0,74,0.00,,,0.00,LWC V2.00 B2112,2015-05-05 05:07:00,
2015-05-05 01:12:00,64.5,56.0,30.26,SE,131,0.0,0.0,74,0.00,,,0.00,LWC V2.00 B2112,2015-05-05 05:12:00,
2015-05-05 01:17:00,64.5,56.0,30.26,SE,131,0.0,0.0,74,0.00,,,0.00,LWC V2.00 B2112,2015-05-05 05:17:00,
2015-05-05 01:22:00,64.3,56.6,30.26,SE,131,0.0,0.0,76,0.00,,,0.00,LWC V2.00 B2112,2015-05-05 05:22:00,
2015-05-05 01:27:00,64.2,55.7,30.26,SE,131,0.0,0.0,74,0.00,,,0.00,LWC V2.00 B2112,2015-05-05 05:27:00,
2015-05-05 01:32:00,64.0,55.9,30.26,SE,131,0.0,0.0,75,0.00,,,0.00,LWC V2.00 B2112,2015-05-05 05:32:00,
2015-05-05 01:37:00,63.9,56.2,30.26,SE,131,0.0,0.0,76,0.00,,,0.00,LWC V2.00 B2112,2015-05-05 05:37:00,
2015-05-05 01:42:00,63.7,55.6,30.26,SE,131,0.0,0.0,75,0.00,,,0.00,LWC V2.00 B2112,2015-05-05 05:42:00,
2015-05-05 01:47:00,63.5,55.8,30.26,SE,131,0.0,0.0,76,0.00,,,0.00,LWC V2.00 B2112,2015-05-05 05:47:00,
2015-05-05 01:52:00,63.2,55.5,30.26,SE,131,0.0,0.0,76,0.00,,,0.00,LWC V2.00 B2112,2015-05-05 05:52:00,
2015-05-05 01:57:00,63.1,55.4,30.25,SE,131,0.0,0.0,76,0.00,,,0.00,LWC V2.00 B2112,2015-05-05 05:57:00,
2015-05-05 02:02:00,62.9,55.6,30.25,SE,131,0.0,0.0,77,0.00,,,0.00,LWC V2.00 B2112,2015-05-05 06:02:00,
2015-05-05 02:07:00,62.7,55.4,30.25,SE,131,0.0,0.0,77,0.00,,,0.00,LWC V2.00 B2112,2015-05-05 06:07:00,
2015-05-05 02:12:00,62.4,55.1,30.26,SE,131,0.0,0.0,77,0.00,,,0.00,LWC V2.00 B2112,2015-05-05 06:12:00,
2015-05-05 02:17:00,62.3,55.0,30.26,SE,131,0.0,0.0,77,0.00,,,0.00,LWC V2.00 B2112,2015-05-05 06:17:00,
2015-05-05 02:22:00,62.0,55.1,30.26,SE,131,0.0,0.0,78,0.00,,,0.00,LWC V2.00 B2112,2015-05-05 06:22:00,
2015-05-05 02:27:00,61.6,54.7,30.25,SE,131,0.0,0.0,78,0.00,,,0.00,LWC V2.00 B2112,2015-05-05 06:27:00,
2015-05-05 02:32:00,61.5,54.9,30.25,SE,131,0.0,0.0,79,0.00,,,0.00,LWC V2.00 B2112,2015-05-05 06:32:00,
2015-05-05 02:37:00,61.2,54.6,30.25,SE,131,0.0,0.0,79,0.00,,,0.00,LWC V2.00 B2112,2015-05-05 06:37:00,
2015-05-05 02:42:00,61.0,54.8,30.25,SE,131,0.0,0.0,80,0.00,,,0.00,LWC V2.00 B2112,2015-05-05 06:42:00,
2015-05-05 02:47:00,60.9,54.7,30.25,SE,131,0.0,0.0,80,0.00,,,0.00,LWC V2.00 B2112,2015-05-05 06:47:00,
2015-05-05 02:52:00,60.7,54.5,30.25,SE,131,0.0,0.0,80,0.00,,,0.00,LWC V2.00 B2112,2015-05-05 06:52:00,
2015-05-05 02:57:00,60.7,54.8,30.24,SE,131,0.0,0.0,81,0.00,,,0.00,LWC V2.00 B2112,2015-05-05 06:57:00,
2015-05-05 03:02:00,60.5,54.6,30.24,SE,131,0.0,0.0,81,0.00,,,0.00,LWC V2.00 B2112,2015-05-05 07:02:00,
2015-05-05 03:07:00,60.4,54.5,30.24,SE,131,0.0,0.0,81,0.00,,,0.00,LWC V2.00 B2112,2015-05-05 07:07:00,
2015-05-05 03:12:00,60.4,54.5,30.24,SE,131,0.0,0.0,81,0.00,,,0.00,LWC V2.00 B2112,2015-05-05 07:12:00,
2015-05-05 03:17:00,60.2,54.7,30.24,SE,131,0.0,0.0,82,0.00,,,0.00,LWC V2.00 B2112,2015-05-05 07:17:00,
2015-05-05 03:22:00,60.1,54.6,30.24,SE,131,0.0,0.0,82,0.00,,,0.00,LWC V2.00 B2112,2015-05-05 07:22:00,
2015-05-05 03:27:00,59.9,54.4,30.24,SE,131,0.0,0.0,82,0.00,,,0.00,LWC V2.00 B2112,2015-05-05 07:27:00,
2015-05-05 03:32:00,59.8,54.3,30.24,SE,131,0.0,0.0,82,0.00,,,0.00,LWC V2.00 B2112,2015-05-05 07:32:00,
2015-05-05 03:37:00,59.6,54.1,30.24,SE,131,0.0,0.0,82,0.00,,,0.00,LWC V2.00 B2112,2015-05-05 07:37:00,
2015-05-05 03:42:00,59.5,54.3,30.24,SE,131,0.0,0.0,83,0.00,,,0.00,LWC V2.00 B2112,2015-05-05 07:42:00,
2015-05-05 03:47:00,59.3,54.1,30.24,SE,131,0.0,0.0,83,0.00,,,0.00,LWC V2.00 B2112,2015-05-05 07:47:00,
2015-05-05 03:52:00,59.2,54.0,30.24,SE,131,0.0,0.0,83,0.00,,,0.00,LWC V2.00 B2112,2015-05-05 07:52:00,
2015-05-05 03:57:00,59.0,54.2,30.24,SE,131,0.0,0.0,84,0.00,,,0.00,LWC V2.00 B2112,2015-05-05 07:57:00,
2015-05-05 04:02:00,58.9,54.1,30.24,SE,131,0.0,0.0,84,0.00,,,0.00,LWC V2.00 B2112,2015-05-05 08:02:00,
2015-05-05 04:07:00,58.9,54.1,30.24,SE,131,0.0,0.0,84,0.00,,,0.00,LWC V2.00 B2112,2015-05-05 08:07:00,
2015-05-05 04:12:00,58.6,54.1,30.24,SE,131,0.0,0.0,85,0.00,,,0.00,LWC V2.00 B2112,2015-05-05 08:12:00,
2015-05-05 04:17:00,58.4,53.9,30.24,SE,131,0.0,0.0,85,0.00,,,0.00,LWC V2.00 B2112,2015-05-05 08:17:00,
2015-05-05 04:22:00,58.4,53.9,30.24,SE,131,0.0,0.0,85,0.00,,,0.00,LWC V2.00 B2112,2015-05-05 08:22:00,
2015-05-05 04:27:00,58.3,53.8,30.24,SE,131,0.0,0.0,85,0.00,,,0.00,LWC V2.00 B2112,2015-05-05 08:27:00,
2015-05-05 04:32:00,58.1,53.9,30.24,SE,131,0.0,0.0,86,0.00,,,0.00,LWC V2.00 B2112,2015-05-05 08:32:00,
2015-05-05 04:37:00,58.0,53.8,30.24,SE,131,0.0,0.0,86,0.00,,,0.00,LWC V2.00 B2112,2015-05-05 08:37:00,
2015-05-05 04:42:00,57.8,53.6,30.24,SE,131,0.0,0.0,86,0.00,,,0.00,LWC V2.00 B2112,2015-05-05 08:42:00,
2015-05-05 04:47:00,57.6,53.4,30.24,SE,131,0.0,0.0,86,0.00,,,0.00,LWC V2.00 B2112,2015-05-05 08:47:00,
2015-05-05 04:52:00,57.5,53.7,30.24,SE,131,0.0,0.0,87,0.00,,,0.00,LWC V2.00 B2112,2015-05-05 08:52:00,
2015-05-05 04:57:00,57.3,53.5,30.24,SE,131,0.0,0.0,87,0.00,,,0.00,LWC V2.00 B2112,2015-05-05 08:57:00,
2015-05-05 05:02:00,57.2,53.4,30.24,SE,131,0.0,0.0,87,0.00,,,0.00,LWC V2.00 B2112,2015-05-05 09:02:00,
2015-05-05 05:07:00,57.0,53.2,30.24,SE,131,0.0,0.0,87,0.00,,,0.00,LWC V2.00 B2112,2015-05-05 09:07:00,
2015-05-05 05:12:00,56.9,53.1,30.24,SE,131,0.0,0.0,87,0.00,,,0.00,LWC V2.00 B2112,2015-05-05 09:12:00,
2015-05-05 05:17:00,56.7,53.2,30.24,SE,131,0.0,0.0,88,0.00,,,0.00,LWC V2.00 B2112,2015-05-05 09:17:00,
2015-05-05 05:22:00,56.5,53.0,30.24,SE,131,0.0,0.0,88,0.00,,,0.00,LWC V2.00 B2112,2015-05-05 09:22:00,
2015-05-05 05:27:00,56.5,53.3,30.24,SE,131,0.0,0.0,89,0.00,,,0.00,LWC V2.00 B2112,2015-05-05 09:27:00,
2015-05-05 05:32:00,56.3,53.1,30.24,SE,131,0.0,0.0,89,0.00,,,0.00,LWC V2.00 B2112,2015-05-05 09:32:00,
2015-05-05 05:37:00,56.2,53.0,30.24,SE,131,0.0,0.0,89,0.00,,,0.00,LWC V2.00 B2112,2015-05-05 09:37:00,
2015-05-05 05:42:00,56.0,52.8,30.25,SE,131,0.0,0.0,89,0.00,,,0.00,LWC V2.00 B2112,2015-05-05 09:42:00,
2015-05-05 05:47:00,55.9,53.0,30.25,SE,131,0.0,0.0,90,0.00,,,0.00,LWC V2.00 B2112,2015-05-05 09:47:00,
2015-05-05 05:52:00,55.7,52.8,30.25,SE,131,0.0,0.0,90,0.00,,,0.00,LWC V2.00 B2112,2015-05-05 09:52:00,
2015-05-05 05:57:00,55.6,52.7,30.25,SE,131,0.0,0.0,90,0.00,,,0.00,LWC V2.00 B2112,2015-05-05 09:57:00,
2015-05-05 06:02:00,55.4,52.8,30.25,SE,131,0.0,0.0,91,0.00,,,0.00,LWC V2.00 B2112,2015-05-05 10:02:00,
2015-05-05 06:07:00,55.3,52.4,30.25,SE,131,0.0,0.0,90,0.00,,,0.00,LWC V2.00 B2112,2015-05-05 10:07:00,
2015-05-05 06:12:00,55.3,52.7,30.25,SE,131,0.0,0.0,91,0.00,,,0.00,LWC V2.00 B2112,2015-05-05 10:12:00,
2015-05-05 06:17:00,55.1,52.5,30.25,SE,131,0.0,0.0,91,0.00,,,0.00,LWC V2.00 B2112,2015-05-05 10:17:00,
2015-05-05 06:22:00,55.1,52.5,30.25,SE,131,0.0,0.0,91,0.00,,,0.00,LWC V2.00 B2112,2015-05-05 10:22:00,
2015-05-05 06:27:00,55.1,52.8,30.25,SE,131,0.0,0.0,92,0.00,,,0.00,LWC V2.00 B2112,2015-05-05 10:27:00,
2015-05-05 06:32:00,55.0,52.7,30.25,SE,131,0.0,0.0,92,0.00,,,0.00,LWC V2.00 B2112,2015-05-05 10:32:00,
2015-05-05 06:37:00,55.0,52.7,30.25,SE,131,0.0,0.0,92,0.00,,,0.00,LWC V2.00 B2112,2015-05-05 10:37:00,
2015-05-05 06:42:00,55.0,52.7,30.26,SE,131,0.0,0.0,92,0.00,,,0.00,LWC V2.00 B2112,2015-05-05 10:42:00,
2015-05-05 06:47:00,54.8,52.5,30.26,SE,131,0.0,0.0,92,0.00,,,0.00,LWC V2.00 B2112,2015-05-05 10:47:00,
2015-05-05 06:52:00,54.8,52.5,30.26,SE,131,0.0,0.0,92,0.00,,,0.00,LWC V2.00 B2112,2015-05-05 10:52:00,
2015-05-05 06:57:00,54.8,52.5,30.26,SE,131,0.0,0.0,92,0.00,,,0.00,LWC V2.00 B2112,2015-05-05 10:57:00,
2015-05-05 07:02:00,54.8,52.5,30.26,SE,131,0.0,0.0,92,0.00,,,0.00,LWC V2.00 B2112,2015-05-05 11:02:00,
2015-05-05 07:07:00,54.8,52.8,30.26,SE,131,0.0,0.0,93,0.00,,,0.00,LWC V2.00 B2112,2015-05-05 11:07:00,
2015-05-05 07:12:00,54.8,52.8,30.27,SE,131,0.0,0.0,93,0.00,,,0.00,LWC V2.00 B2112,2015-05-05 11:12:00,
2015-05-05 07:17:00,55.0,53.0,30.27,SE,131,0.0,0.0,93,0.00,,,0.00,LWC V2.00 B2112,2015-05-05 11:17:00,
2015-05-05 07:23:00,55.0,53.0,30.27,SE,131,0.0,0.0,93,0.00,,,0.00,LWC V2.00 B2112,2015-05-05 11:23:00,
2015-05-05 07:28:00,55.1,53.1,30.27,SE,131,0.0,0.0,93,0.00,,,0.00,LWC V2.00 B2112,2015-05-05 11:28:00,
2015-05-05 07:33:00,55.3,53.6,30.27,SE,131,0.0,0.0,94,0.00,,,0.00,LWC V2.00 B2112,2015-05-05 11:33:00,
2015-05-05 07:38:00,55.4,53.7,30.27,SE,131,0.0,0.0,94,0.00,,,0.00,LWC V2.00 B2112,2015-05-05 11:38:00,
2015-05-05 07:43:00,55.6,53.9,30.27,SE,131,0.0,0.0,94,0.00,,,0.00,LWC V2.00 B2112,2015-05-05 11:43:00,
2015-05-05 07:48:00,55.9,54.2,30.27,SE,131,0.0,0.0,94,0.00,,,0.00,LWC V2.00 B2112,2015-05-05 11:48:00,
2015-05-05 07:53:00,56.0,54.3,30.27,SE,131,0.0,0.0,94,0.00,,,0.00,LWC V2.00 B2112,2015-05-05 11:53:00,
2015-05-05 07:58:00,56.3,54.6,30.28,SE,131,0.0,0.0,94,0.00,,,0.00,LWC V2.00 B2112,2015-05-05 11:58:00,
2015-05-05 08:03:00,56.5,55.1,30.28,SE,131,0.0,0.0,95,0.00,,,0.00,LWC V2.00 B2112,2015-05-05 12:03:00,
2015-05-05 08:08:00,56.9,55.5,30.28,SE,131,0.0,0.0,95,0.00,,,0.00,LWC V2.00 B2112,2015-05-05 12:08:00,
2015-05-05 08:13:00,57.2,55.8,30.28,SE,131,0.0,0.0,95,0.00,,,0.00,LWC V2.00 B2112,2015-05-05 12:13:00,
2015-05-05 08:18:00,57.5,56.1,30.28,SE,131,0.0,0.0,95,0.00,,,0.00,LWC V2.00 B2112,2015-05-05 12:18:00,
2015-05-05 08:23:00,58.0,56.6,30.28,SE,131,0.0,0.0,95,0.00,,,0.00,LWC V2.00 B2112,2015-05-05 12:23:00,
2015-05-05 08:28:00,58.4,56.7,30.28,SE,131,0.0,0.0,94,0.00,,,0.00,LWC V2.00 B2112,2015-05-05 12:28:00,
2015-05-05 08:33:00,58.9,57.2,30.28,SE,131,0.0,0.0,94,0.00,,,0.00,LWC V2.00 B2112,2015-05-05 12:33:00,
2015-05-05 08:38:00,59.3,57.6,30.28,SE,131,0.0,0.0,94,0.00,,,0.00,LWC V2.00 B2112,2015-05-05 12:38:00,
2015-05-05 08:43:00,59.8,57.8,30.28,SE,131,0.0,0.0,93,0.00,,,0.00,LWC V2.00 B2112,2015-05-05 12:43:00,
2015-05-05 08:48:00,60.2,57.9,30.28,SE,131,0.0,0.0,92,0.00,,,0.00,LWC V2.00 B2112,2015-05-05 12:48:00,
2015-05-05 08:53:00,60.9,58.3,30.28,SE,131,0.0,0.0,91,0.00,,,0.00,LWC V2.00 B2112,2015-05-05 12:53:00,
2015-05-05 08:58:00,61.6,58.6,30.28,SE,131,0.0,0.0,90,0.00,,,0.00,LWC V2.00 B2112,2015-05-05 12:58:00,
2015-05-05 09:03:00,62.1,58.5,30.28,SE,131,0.0,0.0,88,0.00,,,0.00,LWC V2.00 B2112,2015-05-05 13:03:00,
2015-05-05 09:08:00,62.7,58.1,30.28,SE,131,0.0,0.0,85,0.00,,,0.00,LWC V2.00 B2112,2015-05-05 13:08:00,
2015-05-05 09:13:00,63.9,57.3,30.28,ENE,73,0.0,0.0,79,0.00,,,0.00,LWC V2.00 B2112,2015-05-05 13:13:00,
2015-05-05 09:18:00,65.0,56.1,30.28,ENE,74,0.0,0.0,73,0.00,,,0.00,LWC V2.00 B2112,2015-05-05 13:18:00,
2015-05-05 09:23:00,66.0,58.2,30.28,ENE,74,0.0,0.0,76,0.00,,,0.00,LWC V2.00 B2112,2015-05-05 13:23:00,
2015-05-05 09:28:00,66.6,55.7,30.28,ENE,74,0.0,0.0,68,0.00,,,0.00,LWC V2.00 B2112,2015-05-05 13:28:00,
2015-05-05 09:33:00,67.4,55.6,30.28,East,79,0.0,0.0,66,0.00,,,0.00,LWC V2.00 B2112,2015-05-05 13:33:00,
2015-05-05 09:38:00,68.1,57.5,30.27,East,79,0.0,0.0,69,0.00,,,0.00,LWC V2.00 B2112,2015-05-05 13:38:00,
2015-05-05 09:43:00,68.6,55.9,30.27,North,0,0.0,1.0,64,0.00,,,0.00,LWC V2.00 B2112,2015-05-05 13:43:00,
2015-05-05 09:48:00,69.1,56.0,30.27,North,0,0.0,0.0,63,0.00,,,0.00,LWC V2.00 B2112,2015-05-05 13:48:00,
2015-05-05 09:53:00,69.4,54.4,30.27,North,0,0.0,0.0,59,0.00,,,0.00,LWC V2.00 B2112,2015-05-05 13:53:00,
2015-05-05 09:58:00,69.9,54.9,30.27,ESE,113,0.0,0.0,59,0.00,,,0.00,LWC V2.00 B2112,2015-05-05 13:58:00,
2015-05-05 10:03:00,70.4,54.9,30.27,SSW,194,0.0,0.0,58,0.00,,,0.00,LWC V2.00 B2112,2015-05-05 14:03:00,
2015-05-05 10:08:00,70.9,54.9,30.27,WNW,286,0.0,2.0,57,0.00,,,0.00,LWC V2.00 B2112,2015-05-05 14:08:00,
2015-05-05 10:13:00,71.5,54.5,30.27,ESE,117,0.0,3.0,55,0.00,,,0.00,LWC V2.00 B2112,2015-05-05 14:13:00,
2015-05-05 10:18:00,71.8,53.7,30.27,ESE,121,0.0,3.0,53,0.00,,,0.00,LWC V2.00 B2112,2015-05-05 14:18:00,
2015-05-05 10:23:00,72.1,54.0,30.27,East,99,0.0,0.0,53,0.00,,,0.00,LWC V2.00 B2112,2015-05-05 14:23:00,
2015-05-05 10:28:00,72.7,55.1,30.27,SE,144,0.0,0.0,54,0.00,,,0.00,LWC V2.00 B2112,2015-05-05 14:28:00,
2015-05-05 10:33:00,73.2,54.5,30.27,SE,125,0.0,0.0,52,0.00,,,0.00,LWC V2.00 B2112,2015-05-05 14:33:00,
2015-05-05 10:38:00,73.9,55.7,30.27,SE,125,0.0,0.0,53,0.00,,,0.00,LWC V2.00 B2112,2015-05-05 14:38:00,
2015-05-05 10:43:00,74.6,55.3,30.27,SW,235,0.0,0.0,51,0.00,,,0.00,LWC V2.00 B2112,2015-05-05 14:43:00,
2015-05-05 10:48:00,75.3,55.4,30.27,SSE,147,0.0,0.0,50,0.00,,,0.00,LWC V2.00 B2112,2015-05-05 14:48:00,
2015-05-05 10:53:00,75.8,54.1,30.27,SSE,147,0.0,0.0,47,0.00,,,0.00,LWC V2.00 B2112,2015-05-05 14:53:00,
2015-05-05 10:58:00,76.1,55.0,30.27,SE,130,0.0,0.0,48,0.00,,,0.00,LWC V2.00 B2112,2015-05-05 14:58:00,
2015-05-05 11:03:00,76.1,55.0,30.27,SE,128,0.0,2.0,48,0.00,,,0.00,LWC V2.00 B2112,2015-05-05 15:03:00,
2015-05-05 11:08:00,76.7,56.1,30.27,South,169,0.0,0.0,49,0.00,,,0.00,LWC V2.00 B2112,2015-05-05 15:08:00,
2015-05-05 11:13:00,76.7,54.9,30.27,ENE,66,0.0,0.0,47,0.00,,,0.00,LWC V2.00 B2112,2015-05-05 15:13:00,
2015-05-05 11:18:00,76.8,55.0,30.27,ENE,67,0.0,0.0,47,0.00,,,0.00,LWC V2.00 B2112,2015-05-05 15:18:00,
2015-05-05 11:23:00,77.2,54.8,30.26,SSE,159,0.0,0.0,46,0.00,,,0.00,LWC V2.00 B2112,2015-05-05 15:23:00,
2015-05-05 11:28:00,77.0,55.2,30.26,SE,134,0.0,0.0,47,0.00,,,0.00,LWC V2.00 B2112,2015-05-05 15:28:00,
2015-05-05 11:33:00,77.7,55.8,30.26,South,181,0.0,0.0,47,0.00,,,0.00,LWC V2.00 B2112,2015-05-05 15:33:00,
2015-05-05 11:38:00,78.8,56.2,30.26,SW,225,0.0,0.0,46,0.00,,,0.00,LWC V2.00 B2112,2015-05-05 15:38:00,
2015-05-05 11:43:00,78.6,54.8,30.26,WSW,253,0.0,0.0,44,0.00,,,0.00,LWC V2.00 B2112,2015-05-05 15:43:00,
2015-05-05 11:48:00,79.4,55.6,30.26,SSE,147,0.0,3.0,44,0.00,,,0.00,LWC V2.00 B2112,2015-05-05 15:48:00,
2015-05-05 11:53:00,79.8,54.6,30.26,ESE,115,0.0,1.0,42,0.00,,,0.00,LWC V2.00 B2112,2015-05-05 15:53:00,
2015-05-05 11:58:00,79.6,55.7,30.26,SE,142,0.0,1.0,44,0.00,,,0.00,LWC V2.00 B2112,2015-05-05 15:58:00,
2015-05-05 12:03:00,80.1,56.2,30.26,East,99,0.0,0.0,44,0.00,,,0.00,LWC V2.00 B2112,2015-05-05 16:03:00,
2015-05-05 12:08:00,80.5,55.9,30.25,SW,230,0.0,0.0,43,0.00,,,0.00,LWC V2.00 B2112,2015-05-05 16:08:00,
2015-05-05 12:13:00,80.3,55.1,30.25,ENE,57,0.0,1.0,42,0.00,,,0.00,LWC V2.00 B2112,2015-05-05 16:13:00,
2015-05-05 12:18:00,81.6,54.9,30.25,ENE,57,0.0,0.0,40,0.00,,,0.00,LWC V2.00 B2112,2015-05-05 16:18:00,
2015-05-05 12:23:00,82.2,56.1,30.25,East,82,0.0,0.0,41,0.00,,,0.00,LWC V2.00 B2112,2015-05-05 16:23:00,
2015-05-05 12:28:00,82.0,55.3,30.25,SE,124,0.0,0.0,40,0.00,,,0.00,LWC V2.00 B2112,2015-05-05 16:28:00,
2015-05-05 12:33:00,81.4,56.1,30.25,SE,144,0.0,0.0,42,0.00,,,0.00,LWC V2.00 B2112,2015-05-05 16:33:00,
2015-05-05 12:38:00,81.8,55.1,30.24,SSW,198,0.0,0.0,40,0.00,,,0.00,LWC V2.00 B2112,2015-05-05 16:38:00,
2015-05-05 12:43:00,82.2,56.8,30.24,SE,133,0.0,0.0,42,0.00,,,0.00,LWC V2.00 B2112,2015-05-05 16:43:00,
2015-05-05 12:48:00,83.0,56.8,30.24,SE,146,0.0,0.0,41,0.00,,,0.00,LWC V2.00 B2112,2015-05-05 16:48:00,
2015-05-05 12:53:00,82.8,56.7,30.24,WSW,248,0.0,1.0,41,0.00,,,0.00,LWC V2.00 B2112,2015-05-05 16:53:00,
2015-05-05 12:58:00,82.6,55.8,30.24,SE,132,0.0,0.0,40,0.00,,,0.00,LWC V2.00 B2112,2015-05-05 16:58:00,
2015-05-05 13:03:00,83.4,55.1,30.24,SE,132,0.0,0.0,38,0.00,,,0.00,LWC V2.00 B2112,2015-05-05 17:03:00,
2015-05-05 13:08:00,83.6,56.0,30.23,SE,138,0.0,0.0,39,0.00,,,0.00,LWC V2.00 B2112,2015-05-05 17:08:00,
2015-05-05 13:13:00,84.0,55.6,30.23,SSE,155,0.0,0.0,38,0.00,,,0.00,LWC V2.00 B2112,2015-05-05 17:13:00,
2015-05-05 13:18:00,84.1,55.0,30.23,SE,130,0.0,0.0,37,0.00,,,0.00,LWC V2.00 B2112,2015-05-05 17:18:00,
2015-05-05 13:23:00,84.0,56.3,30.22,SE,140,0.0,0.0,39,0.00,,,0.00,LWC V2.00 B2112,2015-05-05 17:23:00,
2015-05-05 13:28:00,83.4,55.8,30.22,SW,225,0.0,0.0,39,0.00,,,0.00,LWC V2.00 B2112,2015-05-05 17:28:00,
2015-05-05 13:33:00,84.0,54.9,30.22,ESE,103,0.0,0.0,37,0.00,,,0.00,LWC V2.00 B2112,2015-05-05 17:33:00,
2015-05-05 13:38:00,82.8,56.0,30.22,ESE,111,0.0,0.0,40,0.00,,,0.00,LWC V2.00 B2112,2015-05-05 17:38:00,
2015-05-05 13:43:00,82.6,55.8,30.22,ESE,111,0.0,0.0,40,0.00,,,0.00,LWC V2.00 B2112,2015-05-05 17:43:00,
2015-05-05 13:48:00,83.4,55.1,30.22,SSW,211,0.0,0.0,38,0.00,,,0.00,LWC V2.00 B2112,2015-05-05 17:48:00,
2015-05-05 13:53:00,83.2,55.6,30.22,South,184,0.0,1.0,39,0.00,,,0.00,LWC V2.00 B2112,2015-05-05 17:53:00,
2015-05-05 13:58:00,83.2,55.6,30.22,SW,215,0.0,0.0,39,0.00,,,0.00,LWC V2.00 B2112,2015-05-05 17:58:00,
2015-05-05 14:03:00,83.6,56.7,30.22,SW,230,0.0,0.0,40,0.00,,,0.00,LWC V2.00 B2112,2015-05-05 18:03:00,
2015-05-05 14:08:00,84.3,55.2,30.22,WSW,237,0.0,0.0,37,0.00,,,0.00,LWC V2.00 B2112,2015-05-05 18:08:00,
2015-05-05 14:13:00,84.7,56.2,30.22,SW,234,0.0,0.0,38,0.00,,,0.00,LWC V2.00 B2112,2015-05-05 18:13:00,
2015-05-05 14:18:00,85.3,54.5,30.22,SSE,163,0.0,0.0,35,0.00,,,0.00,LWC V2.00 B2112,2015-05-05 18:18:00,
2015-05-05 14:23:00,84.3,55.9,30.21,SE,133,0.0,0.0,38,0.00,,,0.00,LWC V2.00 B2112,2015-05-05 18:23:00,
2015-05-05 14:28:00,83.8,54.0,30.21,ESE,122,0.0,2.0,36,0.00,,,0.00,LWC V2.00 B2112,2015-05-05 18:28:00,
2015-05-05 14:33:00,84.0,56.3,30.21,ESE,117,0.0,0.0,39,0.00,,,0.00,LWC V2.00 B2112,2015-05-05 18:33:00,
2015-05-05 14:38:00,83.8,54.7,30.20,West,280,0.0,1.0,37,0.00,,,0.00,LWC V2.00 B2112,2015-05-05 18:38:00,
2015-05-05 14:43:00,83.6,55.3,30.20,West,279,0.0,0.0,38,0.00,,,0.00,LWC V2.00 B2112,2015-05-05 18:43:00,
2015-05-05 14:48:00,83.6,55.3,30.20,West,279,0.0,0.0,38,0.00,,,0.00,LWC V2.00 B2112,2015-05-05 18:48:00,
2015-05-05 14:53:00,84.1,55.0,30.20,West,279,0.0,0.0,37,0.00,,,0.00,LWC V2.00 B2112,2015-05-05 18:53:00,
2015-05-05 14:58:00,83.8,55.5,30.20,West,279,0.0,0.0,38,0.00,,,0.00,LWC V2.00 B2112,2015-05-05 18:58:00,
2015-05-05 15:03:00,82.8,56.7,30.20,West,279,0.0,0.0,41,0.00,,,0.00,LWC V2.00 B2112,2015-05-05 19:03:00,
2015-05-05 15:08:00,83.4,55.1,30.20,West,279,0.0,4.0,38,0.00,,,0.00,LWC V2.00 B2112,2015-05-05 19:08:00,
2015-05-05 15:13:00,83.2,54.9,30.20,West,279,0.0,0.0,38,0.00,,,0.00,LWC V2.00 B2112,2015-05-05 19:13:00,
2015-05-05 15:18:00,83.4,55.1,30.20,West,279,0.0,1.0,38,0.00,,,0.00,LWC V2.00 B2112,2015-05-05 19:18:00,
2015-05-05 15:23:00,83.4,55.8,30.19,West,279,0.0,0.0,39,0.00,,,0.00,LWC V2.00 B2112,2015-05-05 19:23:00,
2015-05-05 15:29:00,83.4,55.8,30.19,South,171,0.0,0.0,39,0.00,,,0.00,LWC V2.00 B2112,2015-05-05 19:29:00,
2015-05-05 15:34:00,83.4,55.8,30.19,SSE,162,0.0,0.0,39,0.00,,,0.00,LWC V2.00 B2112,2015-05-05 19:34:00,
2015-05-05 15:39:00,83.2,56.3,30.19,WSW,240,0.0,0.0,40,0.00,,,0.00,LWC V2.00 B2112,2015-05-05 19:39:00,
2015-05-05 15:44:00,82.6,55.1,30.19,NNW,328,0.0,0.0,39,0.00,,,0.00,LWC V2.00 B2112,2015-05-05 19:44:00,
2015-05-05 15:49:00,82.4,55.6,30.19,NNW,328,0.0,0.0,40,0.00,,,0.00,LWC V2.00 B2112,2015-05-05 19:49:00,
2015-05-05 15:54:00,82.0,56.6,30.18,NNW,328,0.0,0.0,42,0.00,,,0.00,LWC V2.00 B2112,2015-05-05 19:54:00,